Location: Observatoire
(46.1952°N, 5.3391°E)
Time: 21:02:36
(UTC+01:00)

Tiros 1 despin weight - Pass Details

Date: 18 February 2026
Orbit: 556 x 593 km, 48.2° (Epoch: 3 March)

Event Time Altitude Azimuth Distance (km) Brightness Sun altitude
Rises 16:26:10 0° 246° (WSW) 2,735 ? 15.1°
Reaches altitude 10° 16:28:26 10° 245° (WSW) 1,838 ? 14.8°
Maximum altitude 16:32:37 77° 160° (SSE) 573 ? 14.2°
Drops below altitude 10° 16:36:48 10° 74° (ENE) 1,838 ? 13.6°
Sets 16:39:03 0° 73° (ENE) 2,735 ? 13.3°
